Погода в Кошелевицах

Россия / Псковская область     58°29′40″N   29°24′29″E
темп.,
°C
ветер,
м/с
пор.,
м/с
влажн.,
%
обл.,
%
осадки,
мм/ч
давл.,
гПа
погр.,
м
13 апреля, вт
вт1300:00+9ююв31075100 0.0 1020263
03:00+7ююв31080100 0.0 1019249
06:00+5ююв27903 0.0 1020142
09:00+9ю367396 0.0 1020257
12:00+15ююз345167 0.0 1019826
15:00+14з345498 0.0 1019783
18:00+13зсз3566100 0.0 1018508
21:00+6ссз4876100 0.0 1019320
14 апреля, ср
ср1400:00+5ссз4871100 0.0 1019406
03:00+4ссз4973100 0.1 1019448
06:00+3ссз4971100 0.3 1019584
09:00+3ссз3963100 0.3 1019618
12:00+5ссз3658100 0.0 1020590
15:00+7с3546100 0.0 1021951
18:00+8с2550100 0.0 1021783
21:00+5ссв266391 0.0 1023200
15 апреля, чт
чт1500:00+3ссв3973100 0.0 1024308
03:00+2ссв3108294 0.0 1024332
06:00+1ссв3118088 0.0 1025381
09:00+3ссв596599 0.0 1026535
12:00+8св5848100 0.0 10251024
15:00+9св584191 0.0 10251364
18:00+8св594975 0.0 10251267
21:00+4ссв5126473 0.0 1026623
16 апреля, пт
пт1600:00+3св51369100 0.0 1026491
03:00+3св4127598 0.0 1026471
06:00+2св4137987 0.0 1026455
09:00+5всв5126389 0.0 1027564
12:00+9всв684778 0.0 1027983
15:00+11всв583797 0.0 10261270
18:00+11всв594157 0.0 10261333
21:00+7св4125294 0.0 1027559
17 апреля, сб
сб1700:00+5св4126240 0.0 1028416
03:00+3св4126913 0.0 1028376
06:00+3св41272100 0.0 1029381
09:00+6всв5115865 0.0 1029498
12:00+11всв584577 0.0 1030975
15:00+14всв57405 0.0 10291306
18:00+13всв48415 0.0 10291255
21:00+8всв311575 0.0 1030267